Change the Weather History Date:

Tuesday, October 2, 2012

  Actual Average Record
Temperature  
Mean Temperature 61 °F 61 °F  
Max Temperature 76 °F 72 °F 95 °F (2006)
Min Temperature 46 °F 50 °F 34 °F (2004)
Degree Days  
Heating Degree Days 4 6  
Month to date heating degree days 4 11  
Since 1 July heating degree days 54 78  
Cooling Degree Days 0 2  
Month to date cooling degree days 3 4  
Year to date cooling degree days 1798 1336  
Growing Degree Days 10 (Base 50)    
Moisture  
Dew Point 41 °F    
Average Humidity 50    
Maximum Humidity 71    
Minimum Humidity 29    
Precipitation  
Precipitation 0.00 in 0.12 in 2.09 in (2005)
Month to date precipitation 0.00 0.25  
Year to date precipitation 18.55 32.27  
Snow  
Snow 0.00 in 0.00 in 0.00 in ()
Month to date snowfall 0.0 0.0  
Since 1 July snowfall 0.0 0.0  
Since 1 September snowfall 0.0 0.0  
Snow Depth 0.00 in    
Sea Level Pressure  
Sea Level Pressure 29.90 in    
Wind  
Wind Speed 6 mph (NW)    
Max Wind Speed 15 mph    
Max Gust Speed 20 mph    
Visibility 10 miles    
Events      
T = Trace of Precipitation, MM = Missing Value Source: NWS Daily Summary

Daily Weather History Graph

Daily Weather History Graph

Search for Another Location

Airport or City:

Trip Planner

Search our weather history database for the weather conditions in past years. The results will help you decide how hot, cold, wet, or windy it might be!

Date:

Astronomy

Oct. 02, 2012 Rise Set
Actual Time 7:16 AM CDT 6:59 PM CDT
Civil Twilight 6:49 AM CDT 7:25 PM CDT
Nautical Twilight 6:18 AM CDT 7:56 PM CDT
Astronomical Twilight 5:47 AM CDT 8:28 PM CDT
Moon 8:13 PM CDT (10/2) 9:43 AM CDT (10/2)
Length of Visible Light 12h 36m
Length of Day
11h 42m
Waning Gibbous, 94% of the Moon is Illuminated
Oct 2
Waning Gibbous
Oct 8
Last Quarter
Oct 15
New
Oct 21
First Quarter
Oct 29
Full

Hourly Weather History & Observations

Time (CDT) Temp. Dew Point Humidity Pressure Visibility Wind Dir Wind Speed Gust Speed Precip Events Conditions
12:53 AM 55.9 °F 41.0 °F 57% 29.89 in 10.0 mi NW 8.1 mph - N/A   Clear
1:53 AM 55.0 °F 39.9 °F 57% 29.90 in 10.0 mi NNW 9.2 mph - N/A   Clear
2:53 AM 55.0 °F 37.9 °F 53% 29.89 in 10.0 mi NNW 9.2 mph - N/A   Clear
3:53 AM 52.0 °F 37.9 °F 59% 29.89 in 10.0 mi NW 8.1 mph - N/A   Clear
4:53 AM 51.1 °F 37.9 °F 61% 29.91 in 10.0 mi NW 8.1 mph - N/A   Clear
5:53 AM 48.9 °F 37.9 °F 66% 29.92 in 10.0 mi NW 8.1 mph - N/A   Clear
6:53 AM 46.9 °F 37.9 °F 71% 29.92 in 10.0 mi NW 5.8 mph - N/A   Clear
7:53 AM 48.0 °F 39.0 °F 71% 29.94 in 10.0 mi NW 4.6 mph - N/A   Clear
8:53 AM 52.0 °F 39.0 °F 61% 29.94 in 10.0 mi NW 8.1 mph - N/A   Clear
9:53 AM 59.0 °F 41.0 °F 51% 29.94 in 10.0 mi NNW 8.1 mph - N/A   Clear
10:53 AM 63.0 °F 43.0 °F 48% 29.94 in 10.0 mi Variable 5.8 mph - N/A   Clear
11:53 AM 68.0 °F 46.0 °F 45% 29.93 in 10.0 mi North 5.8 mph - N/A   Clear
12:53 PM 72.0 °F 46.9 °F 41% 29.92 in 10.0 mi NNW 10.4 mph - N/A   Clear
1:53 PM 73.9 °F 45.0 °F 35% 29.89 in 10.0 mi Variable 5.8 mph 17.3 mph N/A   Partly Cloudy
2:53 PM 75.0 °F 44.1 °F 33% 29.87 in 10.0 mi North 8.1 mph - N/A   Partly Cloudy
3:53 PM 75.0 °F 42.1 °F 31% 29.86 in 10.0 mi NW 4.6 mph - N/A   Clear
4:53 PM 75.0 °F 41.0 °F 29% 29.85 in 10.0 mi North 8.1 mph - N/A   Clear
5:53 PM 73.9 °F 42.1 °F 32% 29.86 in 10.0 mi NNW 3.5 mph - N/A   Clear
6:53 PM 69.8 °F 41.0 °F 35% 29.88 in 10.0 mi WNW 3.5 mph - N/A   Clear
7:53 PM 68.0 °F 41.0 °F 37% 29.88 in 10.0 mi West 3.5 mph - N/A   Clear
8:53 PM 66.0 °F 39.9 °F 38% 29.89 in 10.0 mi WNW 5.8 mph - N/A   Clear
9:53 PM 64.9 °F 39.9 °F 40% 29.90 in 10.0 mi WNW 4.6 mph - N/A   Clear
10:53 PM 64.9 °F 39.0 °F 39% 29.89 in 10.0 mi WNW 3.5 mph - N/A   Clear
11:53 PM 61.0 °F 41.0 °F 48% 29.89 in 10.0 mi West 3.5 mph - N/A   Clear